Current Conditions
Mostly Clear
Conditions



Pressure
1017.95 (hPa) - 30.06 (inHG)
Visibility

9.7 (km) - 6.0 (miles)
Temperature
30  °C
Temperature
10  °C
Dewpoint
29  %
 Humidity
Wind Speed
13  km/h
7  kts
8  mph
3.6  m/s
Wind Direction
N
45°
E
90°
135°
S
180°
225°
W
270°
315°
 280°

Due West
Airport Data
LELN
León Airport
Metar :LELN 191800Z 28007KT 240V320 CAVOK 30/10 Q1018
Fri 19th July 20:00 pm
Raw Metar Info
Raw METAR is the most common format in the world for the transmission of observational weather data. It is highly standardized through the International Civil Aviation Organization (ICAO), which allows it to be understood throughout most of the world.
API Info
Data Provided by
https://www.checkwx.com/weather/LELN

Aviation Weather providing METAR, TAF, AIRMET, SIGMET and OUTLOOK Weather Reports
© Info
CSS/SVG/PHP scripts were developed by weather34 for use in the weather34 template © 2015-2024

Guide Info provided by Metar-Wikipedia